Regional Weather Roundup
Issued by NWS

Home | Current Version | Previous Version | Text Only | Print | Product List | Glossary Off
Versions: 1 2 3 4 5 6 7 8 9 10 11 12 13 14 15 16 17 18 19 20 21 22 23 24 25 26 27 28 29 30 31 32 33 34 35 36 37 38 39 40 41 42 43 44 45 46 47 48 49 50

000
ASUS43 KLSX 212259
RWRMO

WEATHER SUMMARY FOR MISSOURI
NATIONAL WEATHER SERVICE SPRINGFIELD MO
500 PM CST FRI NOV 21 2014

NOTE: "FAIR" INDICATES FEW OR NO CLOUDS BELOW 12,000 FEET WITH NO
       SIGNIFICANT WEATHER AND/OR OBSTRUCTIONS TO VISIBILITY.
       CURRENT SKY AND/OR WEATHER CONDITIONS ARE NOT AVAILABLE FOR
       CHILLICOTHE AND FARMINGTON.

MOZ001>031-035>038-043-044-053-054-220000-
...NORTHERN AND WESTERN MISSOURI...

CITY           SKY/WX    TMP DP  RH WIND       PRES   REMARKS
KANSAS CTY INT CLOUDY    41  36  82 SE9       30.09F
KANSAS C DTWN  LGT RAIN  44  36  73 E6        30.10F
LEE`S SUMMIT   CLOUDY    44  34  67 SE8       30.10F
ST JOSEPH      CLOUDY    37  32  82 E3        30.11F
CHILLICOTHE      N/A     40  28  62 SE8       30.16F
KIRKSVILLE     CLOUDY    38  21  50 SE13      30.18F WCI  30

$$
MOZ066>068-077>081-088>096-101>105-220000-
...SOUTHWEST MISSOURI...

CITY           SKY/WX    TMP DP  RH WIND       PRES   REMARKS
SPRINGFIELD    CLOUDY    45  38  76 SE18      30.15S
JOPLIN         CLOUDY    54  44  69 SE10      30.10S

$$
MOZ032>034-039>042-045>050-055>058-069>072-220000-
...CENTRAL MISSOURI...

CITY           SKY/WX    TMP DP  RH WIND       PRES   REMARKS
COLUMBIA       LGT RAIN  43  30  60 SE9       30.19S
JEFFERSON CITY CLOUDY    47  27  45 SE9       30.21S
ROLLA          CLOUDY    44  26  49 SE13      30.19F
SEDALIA        LGT RAIN  43  31  62 SE10      30.15F
WHITEMAN AFB   LGT RAIN  45  36  70 SE9       30.14S
WARRENSBURG    CLOUDY    43  36  75 E8        30.13S
OSAGE BEACH    CLOUDY    46  30  53 SE7       30.18S

$$
MOZ051-052-059>065-220000-
...EAST CENTRAL MISSOURI...

CITY           SKY/WX    TMP DP  RH WIND       PRES   REMARKS
ST LOUIS INTL  CLOUDY    42  21  43 SE15      30.29F
SPIRIT OF STL  CLOUDY    41  22  46 SE10      30.27F
ST CHARLES     CLOUDY    39  22  50 SE9       30.29F

$$
MOZ072>076-082>087-097>100-106>115-220000-
...SOUTH CENTRAL AND SOUTHEAST MISSOURI...

CITY           SKY/WX    TMP DP  RH WIND       PRES   REMARKS
CAPE GIRARDEAU CLOUDY    44  29  55 SE5       30.33F
FARMINGTON     CLOUDY    43  28  56 SE15      30.30R
POPLAR BLUFF   CLOUDY    41  35  79 E3        30.31F
WEST PLAINS    LGT RAIN  38  35  89 SE8       30.26R FOG

$$



USA.gov is the U.S. government's official web portal to all federal, state and local government web resources and services.